Dewpoint
-9 -9 -8 -7 -4 -3 -3 -3 -3 -4 -9 -12 -3 -5 -10 -7 -6 -7 -7 -6 -6 -6 -4 -5 1 2 2 2 2 3 3 4 4 4 4 4 4 4 4 4 3 2 1
-10 -9 -8 -9 -9 -9 -9 -7 -3 -2 -3 -11 -11 -4 -7 -11 -10 -9 -9 -8 -9 -9 -8 -9 -7 1 3 3 3 3 3 3 4 3 3 3 4 4 3 2 2 2 2
-9 -9 -9 -10 -11 -9 -9 -8 -5 -2 -2 -3 -11 -11 -8 -10 -11 -11 -11 -11 -11 -11 -11 -10 -9 -4 -2 2 3 2 2 2 2 2 2 2 2 3 3 3 2 2 1
-8 -9 -9 -9 -10 -10 -9 -9 -8 -2 -2 -2 -4 -11 -13 -10 -11 -11 -12 -13 -13 -12 -12 -12 -12 -10 -5 1 2 1 1 2 2 1 1 2 2 2 2 2 2 1 1
-9 -9 -8 -9 -9 -9 -10 -8 -9 -6 -3 -2 -2 -4 -11 -14 -13 -13 -13 -14 -14 -13 -13 -13 -13 -13 -13 -11 -7 -3 1 1 1 1 1 1 1 1 2 2 2 1 -0
-9 -9 -9 -8 -9 -9 -9 -8 -8 -8 -6 -4 -3 -3 -5 -11 -14 -13 -12 -13 -14 -14 -14 -13 -14 -14 -13 -13 -12 -8 -5 -4 0 1 1 -0 -1 -1 -4 -4 1 0 1
-10 -9 -8 -8 -9 -8 -7 -7 -7 -8 -7 -6 -5 -4 -4 -6 -11 -12 -11 -11 -11 -12 -13 -13 -13 -13 -13 -13 -13 -12 -11 -8 -6 -6 -4 -1 -2 -5 -9 -10 -4 -4 -4
-9 -9 -9 -8 -8 -8 -8 -7 -7 -7 -7 -7 -6 -6 -5 -6 -7 -9 -9 -10 -10 -11 -11 -11 -11 -11 -11 -11 -11 -11 -12 -11 -11 -9 -9 -7 -10 -10 -11 -11 -9 -8 -11
-9 -9 -9 -9 -8 -8 -7 -7 -8 -8 -8 -8 -7 -6 -6 -6 -6 -6 -5 -6 -6 -7 -7 -8 -8 -9 -9 -9 -9 -9 -10 -11 -12 -10 -11 -11 -12 -14 -12 -12 -13 -12 -13
-7 -9 -8 -8 -8 -8 -7 -7 -7 -8 -8 -9 -9 -9 -9 -9 -9 -8 -7 -7 -6 -7 -7 -6 -6 -6 -6 -7 -7 -8 -8 -10 -10 -11 -11 -11 -11 -14 -14 -12 -12 -14 -15
-8 -7 -9 -9 -8 -7 -7 -7 -7 -7 -7 -7 -8 -8 -8 -8 -8 -8 -7 -6 -6 -6 -5 -5 -5 -5 -4 -4 -5 -6 -7 -7 -7 -9 -10 -10 -10 -12 -14 -14 -12 -13 -15
-10 -9 -8 -8 -9 -9 -9 -8 -8 -8 -7 -6 -6 -5 -5 -5 -6 -7 -7 -7 -7 -5 -5 -5 -5 -5 -5 -4 -4 -5 -6 -6 -6 -7 -8 -9 -10 -10 -12 -14 -14 -13 -14
-17 -12 -8 -7 -7 -8 -9 -9 -9 -9 -9 -9 -8 -7 -6 -4 -3 -3 -4 -5 -5 -5 -5 -5 -5 -4 -4 -4 -4 -4 -5 -6 -6 -6 -6 -7 -8 -8 -9 -12 -14 -14 -14
-20 -20 -17 -10 -6 -6 -6 -7 -8 -8 -8 -7 -7 -7 -7 -7 -6 -4 -3 -3 -2 -2 -2 -3 -3 -3 -2 -2 -3 -3 -3 -4 -5 -5 -5 -5 -6 -6 -7 -9 -12 -13 -14
-23 -22 -20 -18 -9 -4 -4 -4 -5 -5 -5 -4 -4 -3 -3 -3 -3 -3 -3 -3 -4 -4 -5 -5 -5 -4 -4 -3 -2 -2 -2 -3 -4 -4 -4 -4 -4 -5 -5 -6 -8 -11 -13
-22 -22 -21 -19 -17 -9 -3 -2 -2 -2 -3 -3 -3 -4 -4 -3 -3 -3 -3 -3 -3 -3 -3 -3 -3 -4 -4 -4 -4 -4 -4 -2 -2 -2 -2 -3 -3 -4 -4 -5 -6 -7 -9
-15 -14 -13 -13 -12 -11 -11 -7 -3 -2 -2 -1 -0 0 -2 -2 -1 0 0 -1 -3 -4 -3 -3 -3 -3 -2 -3 -3 -4 -4 -5 -4 -3 -2 -2 -2 -2 -3 -3 -4 -5 -6
-18 -17 -15 -13 -11 -10 -10 -10 -9 -8 -7 -5 -3 -2 -2 -1 -1 -0 -1 -0 -2 -4 -4 -4 -3 -2 -3 -3 -3 -3 -3 -4 -4 -5 -4 -3 -3 -3 -3 -2 -3 -3 -4
-18 -19 -19 -20 -21 -21 -20 -16 -12 -10 -10 -9 -10 -10 -6 -6 -5 -3 -2 -2 -3 -4 -4 -4 -4 -3 -3 -3 -4 -4 -3 -4 -4 -4 -5 -4 -4 -4 -4 -3 -3 -3 -3
-19 -19 -19 -19 -19 -20 -21 -21 -20 -17 -13 -12 -11 -10 -8 -4 -3 -4 -4 -4 -4 -4 -4 -4 -4 -3 -4 -4 -4 -4 -4 -4 -4 -4 -5 -5 -5 -4 -4 -4 -4 -4 -4
-17 -18 -19 -19 -19 -19 -19 -16 -13 -9 -7 -6 -5 -6 -5 -5 -5 -4 -3 -3 -3 -4 -4 -3 -3 -4 -4 -4 -4 -4 -5 -5 -4 -5 -5 -5 -5 -5 -5 -5 -5 -5 -5
-16 -16 -17 -17 -18 -18 -19 -17 -7 -5 -5 -6 -5 -6 -6 -5 -5 -5 -4 -3 -2 -3 -3 -3 -3 -4 -5 -5 -4 -5 -5 -5 -5 -5 -5 -5 -5 -5 -5 -5 -5 -5 -5
-15 -15 -15 -15 -16 -16 -16 -14 -10 -6 -6 -6 -6 -6 -6 -6 -6 -6 -5 -4 -4 -3 -3 -3 -4 -5 -5 -4 -5 -6 -6 -6 -5 -6 -5 -6 -5 -5 -5 -5 -5 -5 -6
-15 -15 -14 -14 -14 -13 -12 -10 -9 -7 -6 -6 -6 -6 -6 -5 -5 -5 -5 -4 -4 -4 -4 -5 -5 -5 -5 -6 -6 -6 -6 -6 -6 -6 -6 -6 -6 -5 -5 -6 -6 -6 -6
-15 -14 -14 -13 -12 -12 -11 -11 -9 -6 -6 -6 -6 -6 -6 -6 -5 -5 -5 -5 -5 -5 -5 -5 -5 -6 -6 -6 -6 -7 -6 -7 -7 -7 -7 -7 -6 -6 -6 -6 -6 -6 -6
-13 -12 -12 -12 -11 -11 -9 -8 -8 -6 -7 -7 -7 -7 -6 -6 -6 -6 -6 -5 -5 -5 -5 -6 -6 -7 -7 -7 -7 -7 -7 -7 -7 -6 -6 -6 -6 -6 -6 -6 -7 -7 -7
Wind_Speed
15 15 16 17 18 19 21 21 19 19 18 17 16 15 15 14 14 14 13 13 13 12 12 13 13 13 14 14 14 14 14 14 19 17 16 16 17 17 18 19 17 15 20
18 18 18 17 17 19 21 23 22 21 20 19 18 18 16 16 15 15 14 14 14 14 14 14 13 12 13 13 14 15 15 16 17 20 20 17 13 14 17 18 17 15 14
20 19 19 19 19 20 20 20 22 22 21 21 21 20 18 18 18 17 17 17 17 16 16 16 14 13 13 12 13 14 15 16 17 19 21 20 19 16 12 15 15 16 16
21 21 21 22 22 21 20 20 19 21 22 22 22 21 21 20 20 19 19 19 19 18 18 18 17 16 15 13 13 13 15 14 14 16 18 17 15 12 14 15 14 15 15
19 19 20 21 21 21 21 20 18 19 21 23 23 23 22 23 22 21 21 22 22 21 21 21 20 19 19 19 19 17 14 14 14 14 16 15 15 15 13 14 15 13 17
19 19 18 19 19 20 19 20 20 19 20 22 22 23 24 25 23 21 22 24 24 24 24 23 22 22 21 21 22 22 22 21 16 15 15 17 16 14 16 15 15 13 8
20 19 19 19 18 18 17 18 19 20 20 21 21 23 25 25 25 23 23 25 27 26 26 25 24 24 23 23 23 23 24 24 23 22 19 16 16 15 15 14 12 13 13
21 20 20 19 18 17 18 18 18 19 19 20 21 22 24 24 23 24 25 27 28 28 28 27 27 26 25 24 24 25 25 25 25 24 23 21 20 19 18 15 15 15 16
23 22 22 21 19 18 17 17 17 18 19 19 19 20 23 24 24 24 25 27 30 30 29 30 28 28 26 25 26 27 27 26 26 23 24 23 21 20 19 18 16 16 15
24 23 23 23 21 20 20 20 20 21 22 22 22 22 24 27 25 25 26 29 32 32 31 32 30 29 28 27 27 27 29 26 25 23 24 24 22 21 20 18 17 17 15
23 23 23 23 23 22 21 20 21 22 23 24 25 25 26 26 25 24 26 28 31 31 31 32 31 28 27 27 28 29 29 26 25 24 25 25 23 23 22 20 19 19 18
22 22 23 23 23 23 23 22 20 20 22 22 22 22 21 21 21 22 22 24 26 28 30 29 27 25 26 26 27 28 26 25 26 26 27 26 25 24 21 21 21 22 21
24 24 25 24 23 22 23 23 23 21 21 22 21 21 20 18 17 17 18 18 19 23 25 26 24 24 24 25 25 25 24 26 28 29 28 26 24 23 22 23 24 24 23
26 27 26 25 25 23 21 21 22 20 19 19 19 18 18 18 14 14 15 16 16 17 18 21 21 21 21 22 23 23 25 27 29 30 30 25 25 25 25 25 25 25 25
27 29 29 29 28 25 23 21 18 18 17 16 16 16 16 15 14 14 15 15 16 16 18 20 20 21 21 22 21 22 22 24 28 30 29 28 28 27 26 26 26 27 28
28 28 28 29 29 28 27 25 21 17 16 17 18 18 16 17 17 17 16 17 18 18 20 21 22 19 19 20 21 22 23 24 26 27 29 30 30 29 28 29 29 29 30
25 25 26 26 26 28 28 29 31 29 26 23 21 21 21 23 22 23 25 24 23 22 24 24 24 24 22 21 21 21 23 25 27 28 29 30 30 30 31 32 32 32 33
23 24 26 27 28 28 28 29 29 30 32 35 35 34 32 32 33 33 29 26 28 28 27 26 26 24 24 24 23 23 23 23 23 24 26 29 30 30 31 33 34 35 35
25 26 27 28 28 29 31 32 32 33 33 34 34 34 34 34 33 30 28 29 31 32 30 28 27 24 23 24 24 25 25 24 23 22 21 22 24 26 30 31 32 32 32
27 27 28 31 32 32 33 33 33 32 32 33 34 36 36 33 34 34 32 31 31 33 32 29 26 25 26 27 26 27 29 26 24 23 22 22 22 23 26 27 29 31 32
29 30 30 31 32 32 32 33 32 31 31 32 33 33 32 31 35 34 34 34 30 29 28 26 26 29 28 28 29 30 30 27 26 25 24 22 21 23 23 24 26 27 27
30 31 32 33 34 35 36 33 28 29 30 33 36 36 34 33 35 32 31 31 29 26 25 26 27 28 29 30 30 30 30 24 25 24 24 23 22 23 22 23 24 25 26
32 33 33 33 34 35 35 35 33 31 33 34 36 38 39 36 34 33 32 32 31 27 25 26 28 31 31 29 28 27 27 24 24 24 24 25 24 24 23 23 23 24 24
35 36 35 35 36 36 36 35 31 33 34 36 37 39 39 36 34 34 32 30 28 27 27 29 31 30 27 28 28 26 26 24 23 24 24 25 26 25 25 24 24 24 24
36 36 35 35 36 36 36 36 32 34 37 38 37 36 38 39 37 33 29 26 25 26 28 28 28 28 29 28 27 26 25 24 24 25 26 26 26 25 24 25 24 23 23
34 35 35 36 36 35 35 33 32 35 38 38 36 36 35 35 33 31 28 27 28 27 26 25 27 28 27 28 28 26 25 25 25 23 23 24 24 24 23 23 22 22 21
Wind_Direction
316 317 312 306 299 288 283 285 290 288 288 285 284 285 286 286 285 285 285 283 287 290 293 297 277 264 266 269 274 274 271 272 273 282 290 292 293 295 301 306 311 313 316
305 306 305 306 303 299 294 287 281 281 281 279 277 277 279 281 281 282 281 282 284 285 287 290 288 275 274 276 276 275 276 271 272 281 282 282 280 289 295 300 304 306 304
302 301 303 303 304 303 301 298 284 276 275 275 275 275 275 277 277 279 280 280 282 282 284 285 287 283 280 278 273 279 280 280 284 285 290 294 297 296 288 290 301 307 307
302 300 298 296 299 301 301 298 293 280 274 273 274 275 273 273 273 275 277 278 279 280 280 281 281 279 276 272 271 274 279 282 281 281 287 292 294 290 287 287 295 300 300
313 305 300 298 300 301 295 293 291 285 277 274 273 273 273 272 272 275 276 277 278 278 277 277 278 279 280 279 276 275 273 276 279 279 280 282 279 277 270 260 281 282 296
327 322 313 307 304 302 297 292 294 290 286 282 278 275 273 273 275 274 273 275 276 276 277 278 279 278 278 278 278 277 276 275 271 272 274 276 279 282 281 273 268 279 287
337 332 325 319 315 309 303 296 294 293 289 284 281 278 277 276 276 274 272 272 274 275 277 278 277 277 277 277 278 277 276 275 274 277 276 272 279 278 280 285 275 272 270
350 345 335 326 321 316 309 304 299 296 293 290 287 283 280 277 277 278 278 274 274 275 276 277 277 277 277 277 277 276 277 277 277 278 278 276 273 278 282 280 275 274 277
356 352 346 338 332 324 319 313 309 304 301 298 292 285 283 283 281 277 273 272 272 273 274 274 274 275 276 276 274 276 276 277 277 274 276 276 275 273 272 273 272 274 277
356 352 350 344 338 328 320 315 310 306 301 297 295 293 290 287 281 276 273 274 274 275 275 275 274 274 275 274 273 273 274 276 277 277 273 274 273 272 268 265 265 268 268
358 354 347 344 340 335 330 324 316 311 305 302 298 295 292 291 288 281 277 274 275 275 274 274 276 276 271 269 268 267 270 275 274 272 270 270 271 271 271 266 263 264 263
349 351 351 346 339 334 331 330 326 323 318 315 312 308 305 301 294 289 283 278 276 276 279 281 281 278 274 270 265 266 266 266 265 266 267 267 268 270 272 269 264 262 263
341 342 344 345 344 339 332 328 326 325 321 319 317 316 316 313 308 300 294 289 283 280 283 286 283 278 275 271 269 267 264 260 262 262 263 266 269 270 266 261 259 261 262
336 337 337 337 339 340 339 336 332 332 327 324 324 322 322 323 324 312 305 300 296 291 290 286 286 284 280 276 273 268 263 262 263 267 269 270 266 262 262 261 259 260 259
331 332 332 331 330 331 332 334 332 328 326 325 324 321 323 324 329 323 318 312 308 305 297 293 293 290 287 285 281 277 272 267 263 265 268 268 267 265 262 261 259 258 257
326 326 326 325 324 321 319 317 317 317 314 314 313 311 309 309 313 315 311 306 303 301 297 297 298 295 292 289 284 279 274 269 268 269 269 269 268 266 263 261 258 257 258
326 326 324 323 322 321 319 315 309 304 304 298 296 293 293 295 300 306 306 301 297 293 289 290 290 294 296 294 292 286 281 275 269 262 263 265 266 265 263 261 259 258 258
324 325 323 322 320 318 317 314 312 308 302 298 297 293 290 288 290 294 300 292 291 291 286 282 282 284 290 294 295 293 288 283 278 275 267 263 262 264 264 262 261 260 258
320 322 320 318 317 316 313 310 309 309 307 303 299 296 302 301 296 291 287 281 284 285 285 280 276 276 287 291 294 296 293 285 282 283 281 272 268 265 264 264 265 265 264
317 319 317 315 313 311 310 308 307 306 305 305 304 304 303 303 301 297 292 286 280 280 281 278 273 275 284 285 287 289 291 285 276 276 279 280 274 268 266 267 266 265 263
314 315 316 315 313 310 311 311 309 309 308 307 307 308 307 303 297 293 296 292 288 281 278 275 273 280 283 286 285 286 289 278 269 268 268 269 271 270 269 268 269 268 267
312 313 314 314 315 315 314 316 300 294 297 301 305 307 309 304 302 295 292 294 289 279 273 274 276 282 286 286 285 287 292 282 272 266 268 268 268 269 271 271 270 270 269
310 311 311 311 312 313 313 312 310 301 301 300 304 306 309 307 304 298 291 287 287 283 279 279 283 285 286 283 284 286 284 278 272 269 269 271 269 269 267 267 269 268 265
306 307 306 307 310 311 310 306 303 302 298 297 299 303 302 302 304 303 298 288 280 279 281 286 290 286 283 287 286 284 280 276 271 268 268 266 268 266 265 265 264 264 264
299 300 303 305 306 306 306 307 304 302 303 305 304 302 300 298 301 299 300 296 289 287 287 287 281 282 286 284 282 282 280 276 271 269 268 266 265 264 263 261 261 262 260
300 301 302 302 303 304 303 300 300 299 300 304 306 307 305 303 301 298 296 293 291 289 283 281 285 285 282 282 282 280 275 271 269 267 265 264 263 262 261 258 258 257 256
Height
1515 1512 1509 1507 1505 1504 1502 1500 1498 1497 1496 1494 1493 1492 1491 1490 1489 1488 1487 1486 1484 1483 1481 1479 1478 1478 1477 1477 1476 1475 1475 1474 1471 1469 1467 1464 1462 1460 1458 1455 1454 1453 1448
1511 1508 1506 1504 1501 1499 1497 1495 1493 1492 1491 1490 1489 1487 1487 1486 1485 1484 1483 1482 1481 1479 1478 1476 1474 1474 1473 1473 1472 1471 1470 1469 1467 1464 1462 1461 1459 1457 1454 1452 1451 1450 1449
1506 1504 1502 1499 1497 1494 1492 1489 1488 1487 1486 1485 1484 1483 1482 1481 1481 1480 1479 1478 1477 1476 1474 1473 1472 1470 1469 1469 1469 1468 1467 1464 1463 1460 1458 1457 1455 1453 1452 1450 1449 1447 1445
1502 1499 1497 1495 1492 1490 1488 1485 1483 1482 1481 1480 1479 1478 1477 1477 1476 1475 1475 1474 1473 1472 1470 1469 1468 1467 1465 1465 1465 1465 1464 1461 1459 1457 1455 1454 1452 1451 1450 1449 1447 1444 1443
1497 1494 1492 1489 1486 1484 1482 1480 1479 1477 1475 1474 1473 1473 1472 1471 1471 1471 1470 1469 1468 1467 1465 1464 1463 1462 1461 1460 1459 1459 1459 1458 1457 1454 1452 1450 1448 1447 1446 1445 1444 1443 1441
1492 1489 1486 1483 1481 1479 1477 1475 1473 1472 1470 1469 1468 1467 1467 1466 1465 1465 1464 1463 1462 1461 1460 1459 1458 1457 1456 1455 1454 1453 1453 1452 1452 1450 1448 1445 1444 1442 1441 1440 1440 1440 1440
1488 1485 1481 1478 1476 1474 1472 1470 1468 1467 1465 1463 1462 1461 1460 1460 1460 1459 1458 1457 1456 1455 1454 1453 1452 1451 1451 1450 1449 1448 1447 1446 1446 1445 1443 1443 1441 1439 1437 1436 1436 1436 1436
1485 1482 1478 1475 1472 1470 1468 1466 1463 1461 1459 1458 1457 1456 1454 1454 1454 1453 1453 1450 1449 1448 1448 1447 1446 1445 1445 1444 1443 1441 1440 1440 1439 1439 1437 1437 1436 1435 1433 1433 1433 1432 1431
1484 1480 1476 1472 1469 1466 1464 1462 1459 1457 1455 1453 1451 1450 1448 1448 1447 1447 1445 1443 1441 1441 1440 1439 1439 1438 1438 1437 1435 1434 1434 1433 1432 1433 1432 1431 1431 1430 1429 1429 1428 1428 1427
1482 1478 1474 1470 1466 1463 1460 1458 1455 1452 1450 1448 1446 1444 1442 1441 1440 1439 1438 1436 1434 1433 1433 1431 1431 1431 1431 1430 1428 1427 1425 1427 1426 1425 1425 1424 1425 1424 1424 1424 1424 1424 1424
1481 1477 1473 1469 1464 1460 1457 1454 1450 1447 1444 1442 1440 1438 1436 1434 1432 1431 1431 1429 1426 1425 1424 1423 1422 1422 1422 1421 1420 1419 1420 1421 1419 1419 1418 1418 1418 1417 1417 1418 1419 1418 1418
1479 1475 1471 1467 1462 1458 1454 1450 1447 1443 1440 1437 1434 1431 1429 1427 1425 1424 1423 1422 1421 1418 1417 1416 1415 1415 1414 1413 1412 1412 1412 1412 1411 1411 1411 1411 1411 1411 1412 1412 1412 1412 1412
1475 1471 1467 1464 1459 1455 1451 1447 1443 1440 1436 1433 1430 1427 1424 1422 1421 1419 1417 1416 1414 1413 1411 1409 1408 1407 1407 1406 1405 1405 1405 1404 1403 1402 1402 1403 1404 1405 1405 1404 1405 1405 1406
1472 1468 1464 1460 1456 1452 1448 1444 1439 1436 1433 1430 1427 1424 1421 1419 1417 1415 1413 1411 1410 1408 1406 1404 1402 1401 1400 1399 1398 1398 1397 1397 1396 1395 1395 1397 1396 1397 1397 1398 1399 1399 1399
1468 1463 1459 1455 1451 1448 1445 1441 1438 1434 1431 1428 1425 1422 1419 1416 1415 1413 1411 1408 1406 1404 1402 1399 1397 1396 1394 1393 1392 1391 1390 1390 1389 1388 1388 1389 1389 1389 1390 1391 1392 1392 1391
1465 1460 1455 1451 1447 1443 1439 1436 1435 1432 1429 1425 1422 1419 1416 1413 1411 1409 1407 1405 1403 1401 1397 1395 1392 1390 1388 1386 1385 1384 1383 1382 1382 1382 1381 1381 1380 1381 1382 1383 1384 1383 1384
1460 1456 1451 1447 1443 1439 1435 1431 1426 1425 1423 1421 1419 1416 1412 1409 1407 1404 1402 1400 1397 1396 1392 1389 1387 1384 1382 1380 1378 1377 1375 1374 1374 1372 1372 1372 1372 1372 1373 1373 1374 1375 1375
1456 1452 1447 1443 1439 1435 1431 1427 1423 1418 1413 1410 1410 1408 1407 1404 1400 1398 1395 1392 1388 1386 1385 1382 1380 1378 1375 1373 1371 1370 1368 1366 1364 1363 1362 1363 1363 1363 1363 1363 1363 1364 1366
1450 1446 1442 1438 1434 1430 1426 1422 1417 1413 1408 1403 1400 1397 1395 1392 1389 1388 1386 1382 1379 1376 1374 1373 1371 1370 1368 1366 1364 1362 1360 1358 1356 1355 1354 1354 1354 1354 1353 1354 1354 1355 1356
1444 1440 1436 1431 1427 1423 1419 1414 1409 1405 1401 1397 1393 1390 1386 1383 1379 1376 1374 1373 1371 1367 1364 1362 1361 1361 1360 1358 1356 1354 1351 1350 1349 1348 1347 1346 1345 1345 1344 1345 1345 1346 1346
1437 1433 1430 1425 1420 1416 1411 1406 1401 1397 1393 1390 1386 1382 1380 1376 1370 1367 1365 1362 1361 1359 1356 1354 1353 1352 1351 1349 1347 1345 1342 1340 1339 1339 1338 1338 1338 1337 1337 1337 1337 1337 1337
1430 1426 1422 1417 1412 1407 1403 1398 1395 1392 1388 1383 1378 1375 1372 1368 1363 1359 1356 1353 1351 1350 1348 1347 1345 1344 1342 1341 1338 1336 1333 1331 1331 1330 1331 1330 1329 1329 1329 1329 1329 1329 1329
1422 1417 1413 1409 1405 1400 1395 1391 1386 1383 1380 1376 1371 1366 1363 1359 1354 1351 1347 1345 1342 1340 1339 1338 1336 1335 1333 1331 1329 1328 1325 1323 1323 1323 1322 1322 1321 1321 1321 1321 1321 1321 1321
1413 1409 1404 1400 1396 1391 1387 1383 1379 1375 1371 1367 1363 1359 1354 1350 1346 1342 1338 1335 1333 1331 1330 1328 1327 1325 1323 1322 1320 1319 1317 1316 1315 1315 1314 1314 1313 1313 1313 1312 1313 1313 1314
1404 1400 1395 1391 1387 1383 1379 1374 1370 1366 1362 1358 1353 1349 1345 1341 1337 1333 1330 1327 1325 1323 1321 1319 1317 1316 1314 1313 1311 1310 1308 1308 1307 1306 1306 1305 1304 1304 1305 1304 1305 1306 1307
1394 1390 1386 1382 1378 1374 1370 1365 1361 1358 1353 1348 1344 1339 1335 1331 1327 1324 1321 1319 1317 1314 1312 1311 1309 1307 1305 1303 1302 1301 1299 1298 1298 1298 1297 1296 1296 1296 1296 1297 1298 1299 1300